Biloxi, MS

1:54 PM CDT on June 25, 2017 (GMT -0500)
Keesler Air Force Base

Weather History for KBIX - February, 2014

Change the Weather History Date:

Monday, February 24, 2014

  Actual Average Record
Temperature  
Mean Temperature 64 °F -  
Max Temperature 71 °F 65 °F 75 °F (1962)
Min Temperature 56 °F 46 °F 29 °F (1968)
Degree Days  
Heating Degree Days 2    
Growing Degree Days 14 (Base 50)    
Moisture  
Dew Point 60 °F    
Average Humidity 96    
Maximum Humidity 100    
Minimum Humidity 53    
Precipitation  
Precipitation 0.00 in - - ()
Sea Level Pressure  
Sea Level Pressure 30.06 in    
Wind  
Wind Speed 3 mph (NNE)    
Max Wind Speed 15 mph    
Max Gust Speed 18 mph    
Visibility 5 miles    
Events Fog , Rain    
Averages and records for this station are not official NWS values.
T = Trace of Precipitation, MM = Missing Value Source: NWS Daily Summary

Daily Weather History Graph

Daily Weather History Graph

Search for Another Location

Airport or City:

Trip Planner

Search our weather history database for the weather conditions in past years. The results will help you decide how hot, cold, wet, or windy it might be!

Date:

Astronomy

Feb. 24, 2014 Rise Set
Actual Time 6:27 AM CST 5:50 PM CST
Civil Twilight 6:02 AM CST 6:15 PM CST
Nautical Twilight 5:35 AM CST 6:43 PM CST
Astronomical Twilight 5:07 AM CST 7:11 PM CST
Moon 2:13 AM CST (2/24) 1:04 PM CST (2/24)
Length of Visible Light 12h 12m
Length of Day
11h 23m
Waning Crescent, 28% of the Moon is Illuminated
Feb 24
Waning Crescent
Mar 1
New
Mar 8
First Quarter
Mar 16
Full
Mar 23
Last Quarter

Hourly Weather History & Observations

Time (CST) Temp. Dew Point Humidity Pressure Visibility Wind Dir Wind Speed Gust Speed Precip Events Conditions
12:18 AM 62.6 °F 62.6 °F 100% 30.02 in 0.5 mi ENE 2.3 mph - N/A Fog Fog
12:23 AM 62.6 °F 62.6 °F 100% 30.02 in 0.2 mi East 2.3 mph - N/A Fog Fog
12:28 AM 62.6 °F 62.6 °F 100% 30.02 in 0.5 mi East 3.5 mph - N/A Fog Fog
12:33 AM 62.6 °F 62.6 °F 100% 30.02 in 1.0 mi East 2.3 mph - N/A   Mostly Cloudy
12:38 AM 62.6 °F 62.6 °F 100% 30.02 in 2.0 mi East 2.3 mph - N/A   Mostly Cloudy
12:43 AM 62.6 °F 62.6 °F 100% 30.02 in 3.0 mi Calm Calm - N/A   Mostly Cloudy
12:53 AM 62.6 °F 62.6 °F 100% 30.02 in 4.0 mi Calm Calm - N/A   Overcast
12:58 AM 62.6 °F 62.6 °F 100% 30.03 in 4.0 mi Calm Calm - N/A   Overcast
1:03 AM 62.6 °F 62.6 °F 100% 30.02 in 3.0 mi Calm Calm - N/A   Overcast
1:08 AM 62.6 °F 62.6 °F 100% 30.02 in 2.0 mi Calm Calm - N/A   Overcast
1:23 AM 62.6 °F 62.6 °F 100% 30.02 in 1.2 mi NNW 1.2 mph - N/A   Overcast
1:28 AM 62.6 °F 62.6 °F 100% 30.02 in 0.8 mi Calm Calm - N/A   Overcast
1:33 AM 62.6 °F 62.6 °F 100% 30.02 in 0.8 mi Calm Calm - N/A   Overcast
1:43 AM 62.6 °F 62.6 °F 100% 30.01 in 0.5 mi Calm Calm - N/A Fog Fog
1:50 AM 62.6 °F 62.6 °F 100% 30.01 in 0.5 mi North 3.5 mph - N/A Fog , Rain Light Rain
1:58 AM 62.2 °F 62.2 °F 100% 30.02 in 0.5 mi Variable 2.3 mph - 0.00 in Fog , Rain Light Rain
2:03 AM 62.6 °F 62.6 °F 100% 30.01 in 0.8 mi North 1.2 mph - N/A Rain Light Rain
2:08 AM 62.6 °F 62.6 °F 100% 30.02 in 0.8 mi North 2.3 mph - N/A   Light Drizzle
2:09 AM 62.6 °F 62.6 °F 100% 30.02 in 1.0 mi North 2.3 mph - N/A   Mist
2:14 AM 62.6 °F 62.6 °F 100% 30.02 in 1.5 mi Variable 2.3 mph - N/A   Mostly Cloudy
2:19 AM 62.6 °F 62.6 °F 100% 30.02 in 2.5 mi Variable 2.3 mph - N/A   Mostly Cloudy
2:29 AM 62.6 °F 62.6 °F 100% 30.02 in 1.8 mi North 1.2 mph - N/A   Overcast
2:34 AM 62.6 °F 62.6 °F 100% 30.02 in 1.5 mi Variable 2.3 mph - N/A   Overcast
2:39 AM 62.6 °F 62.6 °F 100% 30.02 in 1.5 mi North 2.3 mph - N/A   Overcast
2:44 AM 62.6 °F 62.6 °F 100% 30.02 in 1.2 mi Variable 1.2 mph - N/A   Overcast
2:49 AM 62.6 °F 62.6 °F 100% 30.02 in 1.5 mi NNE 2.3 mph - N/A   Overcast
2:58 AM 62.6 °F 62.6 °F 100% 30.03 in 1.8 mi NNE 4.6 mph - 0.00 in   Overcast
3:03 AM 62.6 °F 62.6 °F 100% 30.02 in 1.5 mi NE 4.6 mph - N/A   Overcast
3:08 AM 62.6 °F 62.6 °F 100% 30.02 in 1.2 mi NE 2.3 mph - N/A   Overcast
3:13 AM 62.6 °F 62.6 °F 100% 30.02 in 1.0 mi NNE 4.6 mph - N/A   Mist
3:18 AM 62.6 °F 62.6 °F 100% 30.02 in 1.0 mi NE 4.6 mph - N/A Rain Light Rain
3:23 AM 62.6 °F 62.6 °F 100% 30.01 in 0.8 mi NE 5.8 mph - N/A Rain Light Rain
3:50 AM 62.6 °F 62.6 °F 100% 30.02 in 0.8 mi Variable 3.5 mph - N/A   Mist
3:58 AM 61.7 °F 61.7 °F 100% 30.03 in 0.8 mi Variable 1.2 mph - 0.00 in   Mist
4:08 AM 62.6 °F 62.6 °F 100% 30.02 in 1.0 mi North 3.5 mph - N/A   Mist
4:18 AM 60.8 °F 60.8 °F 100% 30.03 in 1.2 mi NNE 2.3 mph - N/A   Overcast
4:28 AM 60.8 °F 60.8 °F 100% 30.03 in 2.0 mi Variable 2.3 mph - N/A   Overcast
4:33 AM 60.8 °F 60.8 °F 100% 30.03 in 3.0 mi NNE 3.5 mph - N/A   Overcast
4:38 AM 62.6 °F 62.6 °F 100% 30.03 in 4.0 mi Variable 3.5 mph - N/A   Overcast
4:43 AM 62.6 °F 62.6 °F 100% 30.03 in 4.0 mi Variable 3.5 mph - N/A   Overcast
4:48 AM 62.6 °F 62.6 °F 100% 30.04 in 4.0 mi NNE 4.6 mph - N/A   Overcast
4:58 AM 61.7 °F 61.7 °F 100% 30.05 in 3.0 mi NE 4.6 mph - N/A   Overcast
5:18 AM 62.6 °F 62.6 °F 100% 30.05 in 4.0 mi Variable 1.2 mph - N/A   Overcast
5:38 AM 60.8 °F 60.8 °F 100% 30.06 in 6.0 mi North 3.5 mph - N/A   Overcast
5:43 AM 60.8 °F 60.8 °F 100% 30.06 in 9.0 mi Variable 2.3 mph - N/A   Overcast
5:58 AM 61.5 °F 61.5 °F 100% 30.07 in 7.0 mi NNE 1.2 mph - N/A   Overcast
6:03 AM 60.8 °F 60.8 °F 100% 30.06 in 6.0 mi Variable 2.3 mph - N/A   Overcast
6:13 AM 60.8 °F 60.8 °F 100% 30.06 in 7.0 mi NNE 5.8 mph - N/A   Overcast
6:23 AM 60.8 °F 60.8 °F 100% 30.07 in 10.0 mi Variable 5.8 mph - N/A   Overcast
6:33 AM 60.8 °F 60.8 °F 100% 30.07 in 10.0 mi NNE 5.8 mph - N/A   Overcast
6:48 AM 60.8 °F 60.8 °F 100% 30.08 in 10.0 mi Variable 3.5 mph - N/A   Overcast
6:58 AM 61.0 °F 61.0 °F 100% 30.10 in 10.0 mi Variable 4.6 mph - N/A   Overcast
7:18 AM 60.8 °F 60.8 °F 100% 30.10 in 10.0 mi Variable 5.8 mph - N/A   Overcast
7:28 AM 60.8 °F 60.8 °F 100% 30.10 in 10.0 mi NE 11.5 mph - N/A   Overcast
7:58 AM 59.9 °F 59.9 °F 100% 30.13 in 10.0 mi NNE 13.8 mph - N/A   Overcast
8:08 AM 59.0 °F 59.0 °F 100% 30.12 in 10.0 mi NNE 13.8 mph 18.4 mph N/A   Overcast
8:18 AM 59.0 °F 59.0 °F 100% 30.12 in 10.0 mi NNE 12.7 mph - N/A   Overcast
8:48 AM 57.2 °F 57.2 °F 100% 30.13 in 10.0 mi NE 13.8 mph - N/A   Overcast
8:58 AM 56.5 °F 56.5 °F 100% 30.14 in 10.0 mi NE 15.0 mph - N/A   Overcast
9:23 AM 57.2 °F 53.6 °F 88% 30.13 in 10.0 mi NNE 11.5 mph - N/A   Mostly Cloudy
9:58 AM 60.4 °F 53.2 °F 77% 30.14 in 10.0 mi North 10.4 mph - N/A   Mostly Cloudy
10:58 AM 64.0 °F 52.9 °F 67% 30.13 in 10.0 mi NE 9.2 mph - N/A   Mostly Cloudy
11:58 AM 67.1 °F 53.1 °F 61% 30.12 in 10.0 mi NNE 9.2 mph - N/A   Mostly Cloudy
12:58 PM 70.0 °F 53.2 °F 55% 30.09 in 10.0 mi NNE 5.8 mph - N/A   Mostly Cloudy
1:58 PM 71.4 °F 53.4 °F 53% 30.07 in 10.0 mi North 5.8 mph - N/A   Clear
2:58 PM 66.9 °F 57.4 °F 71% 30.07 in 10.0 mi South 9.2 mph - N/A   Clear
3:58 PM 63.7 °F 58.1 °F 82% 30.08 in 10.0 mi South 5.8 mph - N/A   Partly Cloudy
4:58 PM 62.6 °F 58.5 °F 86% 30.09 in 10.0 mi South 3.5 mph - N/A   Overcast
5:58 PM 61.3 °F 59.0 °F 92% 30.10 in 10.0 mi SSW 9.2 mph - N/A   Partly Cloudy
6:58 PM 60.8 °F 58.3 °F 91% 30.10 in 10.0 mi Calm Calm - N/A   Clear
7:58 PM 60.8 °F 59.2 °F 94% 30.11 in 10.0 mi Calm Calm - N/A   Overcast
8:58 PM 59.4 °F 59.2 °F 99% 30.11 in 10.0 mi Calm Calm - N/A   Scattered Clouds
9:58 PM 58.3 °F 58.3 °F 100% 30.10 in 10.0 mi SSW 1.2 mph - N/A   Clear
10:53 PM 57.2 °F 57.2 °F 100% 30.08 in 9.0 mi Calm Calm - N/A   Clear
10:58 PM 57.2 °F 57.2 °F 100% 30.08 in 9.0 mi Calm Calm - N/A   Clear
11:03 PM 57.2 °F 57.2 °F 100% 30.07 in 10.0 mi East 1.2 mph - N/A   Clear
11:13 PM 57.2 °F 57.2 °F 100% 30.07 in 9.0 mi Calm Calm - N/A   Clear
11:23 PM 57.2 °F 57.2 °F 100% 30.07 in 10.0 mi NNW 1.2 mph - N/A   Clear
11:28 PM 57.2 °F 57.2 °F 100% 30.07 in 9.0 mi NW 1.2 mph - N/A   Clear
11:53 PM 57.2 °F 57.2 °F 100% 30.08 in 7.0 mi Calm Calm - N/A   Mostly Cloudy
11:58 PM 57.2 °F 57.2 °F 100% 30.09 in 6.0 mi Calm Calm - N/A   Mostly Cloudy